When you browse on this site, cookies collect data to enhance your experience and personalize the content and advertising you see.
Visit our Privacy Policy to learn more. By continuing to use the site, you agree to this use of cookies and data.
  • In Hungary
  • List of Countries
  • For 7 days
  • Water Temperature
  • Satellite Maps
  • Weather Map
  • News
  • Weather Widgets
  • user-avatar
    Login

    Hourly Weather Kota Bharu

    Today, 19 November, Monday

    Time Temperature Precipitation Wind Pressure Humidity
    00:00 +26°C° 0.1 mm 1 mps 758 mmHg 96%
    01:00 +26°C° 0 mm 1 mps 758 mmHg 96%
    02:00 +26°C° 0.4 mm 1 mps 758 mmHg 96%
    03:00 +26°C° 0.4 mm 1 mps 757 mmHg 96%
    04:00 +25°C° 0.4 mm 1 mps 757 mmHg 96%
    05:00 +26°C° 0.3 mm 2 mps 757 mmHg 95%
    06:00 +26°C° 0.3 mm 2 mps 758 mmHg 94%
    07:00 +26°C° 0 mm 2 mps 758 mmHg 91%
    08:00 +29°C° 0.8 mm 2 mps 758 mmHg 81%
    09:00 +32°C° 0.8 mm 2 mps 758 mmHg 70%
    10:00 +34°C° 0.8 mm 1 mps 758 mmHg 60%
    11:00 +35°C° 0.7 mm 2 mps 758 mmHg 65%
    12:00 +34°C° 0.7 mm 2 mps 758 mmHg 70%
    13:00 +35°C° 0 mm 2 mps 758 mmHg 64%
    14:00 +34°C° 0.6 mm 2 mps 757 mmHg 71%
    15:00 +32°C° 0.6 mm 2 mps 757 mmHg 78%
    16:00 +31°C° 0.6 mm 3 mps 756 mmHg 85%
    17:00 +29°C° 0.8 mm 2 mps 757 mmHg 88%
    18:00 +28°C° 0.8 mm 2 mps 757 mmHg 91%
    19:00 +27°C° 0.8 mm 2 mps 757 mmHg 94%
    20:00 +27°C° 0.4 mm 2 mps 758 mmHg 94%
    21:00 +26°C° 0.4 mm 2 mps 758 mmHg 95%
    22:00 +26°C° 0.4 mm 2 mps 759 mmHg 95%
    23:00 +26°C° 0.4 mm 2 mps 758 mmHg 95%

    Tomorrow, 20 November, Tuesday

    Time Temperature Precipitation Wind Pressure Humidity
    00:00 +26°C° 0.4 mm 2 mps 758 mmHg 96%
    01:00 +26°C° 0.4 mm 2 mps 758 mmHg 96%
    02:00 +25°C° 0.3 mm 2 mps 758 mmHg 96%
    03:00 +25°C° 0.3 mm 2 mps 757 mmHg 96%
    04:00 +25°C° 0.3 mm 2 mps 757 mmHg 96%
    05:00 +25°C° 0 mm 2 mps 757 mmHg 95%
    06:00 +26°C° 0 mm 2 mps 757 mmHg 94%
    07:00 +26°C° 0 mm 2 mps 758 mmHg 93%
    08:00 +29°C° 0.1 mm 2 mps 758 mmHg 81%
    09:00 +32°C° 0.1 mm 1 mps 758 mmHg 70%
    10:00 +34°C° 0.1 mm 1 mps 758 mmHg 58%
    11:00 +36°C° 0.1 mm 2 mps 758 mmHg 56%
    12:00 +36°C° 0.1 mm 2 mps 757 mmHg 55%
    13:00 +36°C° 0.1 mm 2 mps 757 mmHg 53%
    14:00 +35°C° 1.4 mm 2 mps 756 mmHg 65%
    15:00 +32°C° 1.4 mm 2 mps 756 mmHg 76%
    16:00 +30°C° 1.4 mm 3 mps 755 mmHg 88%
    17:00 +29°C° 1.1 mm 2 mps 756 mmHg 90%
    18:00 +28°C° 1.1 mm 1 mps 756 mmHg 92%
    19:00 +27°C° 1.1 mm 1 mps 757 mmHg 94%
    20:00 +26°C° 0.5 mm 1 mps 757 mmHg 94%
    21:00 +26°C° 0.5 mm 1 mps 758 mmHg 95%
    22:00 +24°C° 0.5 mm 0 mps 759 mmHg 95%
    23:00 +24°C° 0 mm 0 mps 758 mmHg 95%

    Day after tomorrow, 21 November, Wednesday

    Time Temperature Precipitation Wind Pressure Humidity
    00:00 +24°C° 0 mm 0 mps 758 mmHg 96%
    01:00 +23°C° 0 mm 0 mps 758 mmHg 96%
    02:00 +25°C° 0 mm 1 mps 757 mmHg 96%
    03:00 +25°C° 0 mm 1 mps 757 mmHg 96%
    04:00 +25°C° 0 mm 1 mps 756 mmHg 96%
    05:00 +25°C° 0 mm 1 mps 757 mmHg 95%
    06:00 +25°C° 0 mm 1 mps 757 mmHg 94%
    07:00 +26°C° 0 mm 1 mps 757 mmHg 93%
    08:00 +28°C° 0.6 mm 1 mps 758 mmHg 84%
    09:00 +29°C° 0.6 mm 0 mps 758 mmHg 74%
    10:00 +31°C° 0.6 mm 0 mps 758 mmHg 65%
    11:00 +33°C° 0.3 mm 1 mps 758 mmHg 63%
    12:00 +33°C° 0.3 mm 1 mps 757 mmHg 62%
    13:00 +35°C° 0.3 mm 2 mps 756 mmHg 60%
    14:00 +34°C° 0.1 mm 2 mps 755 mmHg 64%
    15:00 +32°C° 0.1 mm 2 mps 755 mmHg 67%
    16:00 +32°C° 0.1 mm 2 mps 754 mmHg 70%
    17:00 +30°C° 0.1 mm 2 mps 755 mmHg 77%
    18:00 +29°C° 0.1 mm 2 mps 756 mmHg 84%
    19:00 +27°C° 0.1 mm 2 mps 757 mmHg 91%
    20:00 +27°C° 0 mm 2 mps 757 mmHg 92%
    21:00 +26°C° 0 mm 2 mps 758 mmHg 93%
    22:00 +26°C° 0 mm 2 mps 758 mmHg 94%
    23:00 +26°C° 0 mm 2 mps 758 mmHg 95%

    22 November, Thursday

    Time Temperature Precipitation Wind Pressure Humidity
    00:00 +26°C° 0 mm 2 mps 758 mmHg 96%
    01:00 +25°C° 0 mm 2 mps 757 mmHg 97%
    02:00 +25°C° 0 mm 2 mps 757 mmHg 97%
    03:00 +25°C° 0 mm 2 mps 757 mmHg 98%
    04:00 +25°C° 0 mm 2 mps 756 mmHg 98%
    05:00 +25°C° 0 mm 2 mps 757 mmHg 97%
    06:00 +25°C° 0 mm 2 mps 757 mmHg 95%
    07:00 +25°C° 0 mm 2 mps 758 mmHg 94%
    08:00 +28°C° 0 mm 2 mps 758 mmHg 82%
    09:00 +31°C° 0 mm 1 mps 759 mmHg 70%
    10:00 +33°C° 0 mm 1 mps 759 mmHg 58%
    11:00 +34°C° 0 mm 1 mps 758 mmHg 54%
    12:00 +36°C° 0 mm 2 mps 757 mmHg 51%
    13:00 +36°C° 0 mm 2 mps 757 mmHg 47%
    14:00 +36°C° 0 mm 2 mps 756 mmHg 51%
    15:00 +35°C° 0 mm 2 mps 755 mmHg 55%
    16:00 +34°C° 0 mm 2 mps 755 mmHg 59%
    17:00 +31°C° 0 mm 2 mps 756 mmHg 68%
    18:00 +29°C° 0 mm 2 mps 756 mmHg 78%
    19:00 +27°C° 0 mm 2 mps 757 mmHg 87%
    20:00 +27°C° 0 mm 2 mps 758 mmHg 88%
    21:00 +26°C° 0 mm 2 mps 758 mmHg 89%
    22:00 +26°C° 0 mm 1 mps 759 mmHg 91%
    23:00 +26°C° 0 mm 1 mps 758 mmHg 91%

    23 November, Friday

    Time Temperature Precipitation Wind Pressure Humidity
    00:00 +25°C° 0 mm 1 mps 758 mmHg 92%
    01:00 +25°C° 0 mm 1 mps 758 mmHg 92%
    02:00 +25°C° 0 mm 1 mps 757 mmHg 92%
    03:00 +25°C° 0 mm 1 mps 757 mmHg 92%
    04:00 +24°C° 0 mm 1 mps 757 mmHg 92%
    05:00 +25°C° 0 mm 1 mps 757 mmHg 90%
    06:00 +25°C° 0 mm 1 mps 758 mmHg 88%
    07:00 +25°C° 0 mm 2 mps 758 mmHg 86%
    08:00 +28°C° 0 mm 1 mps 758 mmHg 76%
    09:00 +31°C° 0 mm 1 mps 759 mmHg 65%
    10:00 +34°C° 0 mm 1 mps 759 mmHg 54%
    11:00 +35°C° 0 mm 1 mps 758 mmHg 50%
    12:00 +36°C° 0 mm 2 mps 757 mmHg 47%
    13:00 +37°C° 0 mm 2 mps 757 mmHg 43%
    14:00 +36°C° 0 mm 3 mps 756 mmHg 48%
    15:00 +35°C° 0 mm 3 mps 756 mmHg 53%
    16:00 +34°C° 0 mm 4 mps 756 mmHg 57%
    17:00 +31°C° 0 mm 3 mps 756 mmHg 67%
    18:00 +29°C° 0 mm 3 mps 757 mmHg 77%
    19:00 +27°C° 0 mm 2 mps 758 mmHg 87%
    20:00 +27°C° 0 mm 2 mps 758 mmHg 88%
    21:00 +26°C° 0 mm 2 mps 758 mmHg 90%
    22:00 +26°C° 0 mm 2 mps 759 mmHg 91%
    23:00 +26°C° 0 mm 2 mps 758 mmHg 91%

    24 November, Saturday

    Time Temperature Precipitation Wind Pressure Humidity
    00:00 +26°C° 0 mm 2 mps 758 mmHg 90%
    01:00 +26°C° 0 mm 2 mps 757 mmHg 90%
    02:00 +25°C° 0 mm 2 mps 757 mmHg 90%
    03:00 +25°C° 0 mm 2 mps 757 mmHg 90%
    04:00 +25°C° 0 mm 2 mps 757 mmHg 89%
    05:00 +26°C° 0 mm 2 mps 757 mmHg 88%
    06:00 +26°C° 0 mm 3 mps 757 mmHg 87%
    07:00 +26°C° 0 mm 3 mps 758 mmHg 86%
    08:00 +29°C° 0 mm 3 mps 758 mmHg 76%
    09:00 +31°C° 0 mm 3 mps 758 mmHg 66%
    10:00 +35°C° 0 mm 3 mps 759 mmHg 55%
    11:00 +36°C° 0 mm 3 mps 758 mmHg 53%
    12:00 +36°C° 0 mm 3 mps 757 mmHg 50%
    13:00 +37°C° 0 mm 4 mps 756 mmHg 47%
    14:00 +36°C° 0.1 mm 4 mps 756 mmHg 51%
    15:00 +35°C° 0.1 mm 4 mps 755 mmHg 55%
    16:00 +35°C° 0.1 mm 4 mps 755 mmHg 59%
    17:00 +33°C° 0.2 mm 4 mps 756 mmHg 67%
    18:00 +30°C° 0.2 mm 4 mps 756 mmHg 76%
    19:00 +28°C° 0.2 mm 4 mps 757 mmHg 85%
    20:00 +28°C° 0.1 mm 4 mps 757 mmHg 86%
    21:00 +27°C° 0.1 mm 4 mps 758 mmHg 87%
    22:00 +27°C° 0.1 mm 3 mps 758 mmHg 89%
    23:00 +27°C° 0.1 mm 3 mps 758 mmHg 89%
    Show more